[[{"header":{"parameterUnit":"m.s-1","parameterCategory":2,"la1":30.2991,"la2":30.254,"lo1":-89.0895,"lo2":-89.0444,"dy":0.0017,"dx":0.0017,"nx":28,"ny":28,"refTime":"2025-12-10T09:00:00:Z","depth":"0","parameterNumber":2,"parameterNumberName":"U-component_of_CURRENTS"},"data":[0,0,0,0,0,0,0,0,0,0,0,0,0,0,0,0,0,0,0,0,0,0,0,0,0,0,0,0,0,0,0,0,0,0,0,0,0,0,0,0,0,0,0,0,0,0,0,0,0,0,0,0,0,0,0,0,0,0,0.4072,0.4073,0,0.4076,0.4076,0.4075,0.4046,0.4046,0.4045,0.4045,0.3886,0.3882,0.3879,0,0,0,0,0,0,0,0,0,0,0,0,0,0.4003,0.4004,0.4072,0.4073,0.4073,0.4076,0.4076,0.4075,0.4046,0.4046,0.4045,0.4045,0.3887,0.3883,0.3878,0,0,0,0,0,0,0,0,0,0,0,0,0,0.4018,0.4005,0.4072,0.4062,0.4062,0.4076,0.4076,0.4075,0.4046,0.4046,0.4045,0.4044,0.3889,0.3883,0.3878,0.3855,0,0,0.386,0.3858,0,0,0,0,0,0,0,0,0.4018,0.402,0.4063,0.4063,0.4062,0.4064,0.3993,0.3995,0.4046,0.4048,0.4045,0.4044,0.3934,0.3924,0.3923,0.3847,0.384,0.3859,0.3856,0.3854,0.3852,0,0,0,0,0,0,0,0.4017,0.402,0.4069,0.4064,0.4063,0.4045,0.4046,0.3994,0.3988,0.4047,0.4046,0.4054,0.3932,0.3928,0.3918,0.3838,0.386,0.3855,0.3851,0.3849,0.3786,0.3788,0,0,0,0,0,0,0.4028,0.402,0.4069,0.407,0.4043,0.4047,0.4049,0.406,0.3992,0.3983,0.4054,0.4053,0.3938,0.3925,0.3912,0.3942,0.3854,0.3848,0.3845,0.3785,0.3787,0.3789,0,0,0,0,0,0,0.4026,0.4033,0.4069,0.4048,0.4052,0.405,0.4063,0.4061,0.4064,0.4,0.3987,0.4061,0.3937,0.392,0.3905,0.3933,0.3846,0.384,0.3782,0.3785,0.3788,0.3961,0,0,0,0,0,0,0.4024,0.4032,0.4043,0.4049,0.4053,0.4088,0.4064,0.4062,0.4072,0.4069,0.4001,0.3986,0.3936,0.3914,0.3899,0.3923,0.3836,0.378,0.3784,0.3787,0.3953,0.3969,0.3983,0,0,0,0,0,0.4022,0.4037,0.4044,0.405,0.4069,0.4089,0.409,0.4082,0.4073,0.4081,0.4058,0.3988,0.3924,0.3912,0.3894,0.3916,0.3778,0.3783,0.3787,0.3946,0.3966,0.3983,0,0,0,0,0,0,0.4,0.4036,0.4043,0.4066,0.4084,0.4086,0.4093,0.4092,0.4082,0.4076,0.4014,0.3999,0.3998,0.3933,0.3921,0.3909,0.3837,0.3838,0.3965,0.3982,0.3997,0.3969,0.3831,0,0,0,0,0,0.4007,0.4032,0.4059,0.4075,0.409,0.4096,0.4102,0.4102,0.4097,0.4092,0.4055,0.4015,0.3999,0.3974,0.394,0.3926,0.3914,0.3927,0.3942,0.3956,0.3921,0.4005,0.4025,0.3802,0.3802,0.3802,0,0,0.3998,0.4025,0.4034,0.4073,0.4085,0.4106,0.4097,0.4115,0.4127,0.4073,0.4074,0.4066,0.4011,0.4018,0.4007,0.3965,0.4016,0.3961,0.3973,0.3929,0.4011,0.4033,0.4053,0.3805,0.3804,0.3804,0,0,0.3995,0.4025,0.4046,0.4073,0.4109,0.4116,0.4127,0.4146,0.415,0.4162,0.4144,0.4163,0.4104,0.4101,0.4083,0.4152,0.4105,0.4136,0.4176,0.4261,0.4281,0.4297,0.4334,0.4352,0.4133,0.4134,0.4134,0,0.3982,0.4014,0.4052,0.4085,0.41,0.4124,0.4141,0.4159,0.4169,0.4184,0.4172,0.4178,0.4143,0.4172,0.4202,0.4185,0.4211,0.412,0.4285,0.4301,0.4315,0.4348,0.4366,0.4142,0.4141,0.414,0.414,0,0.3996,0.4026,0.4043,0.4092,0.4118,0.4136,0.4174,0.42,0.4212,0.4233,0.4276,0.4273,0.4273,0.4285,0.4255,0.4338,0.4318,0.4313,0.4247,0.4349,0.4376,0.4392,0.4155,0.4152,0.4149,0.4147,0,0,0.3934,0.4032,0.4032,0.4058,0.412,0.4135,0.4181,0.4224,0.4246,0.4294,0.4323,0.4359,0.4383,0.4363,0.4365,0.4423,0.4568,0.4408,0.4408,0.4456,0.4739,0.4765,0.4783,0.4618,0.4621,0.4624,0.4728,0,0.392,0.3979,0.4027,0.4061,0.409,0.4142,0.4175,0.4226,0.4264,0.4304,0.4359,0.4379,0.4408,0.4413,0.4501,0.4516,0.4613,0.4536,0.4617,0.4617,0.4642,0.4804,0.4735,0.4826,0.4743,0.4746,0.4747,0,0.3899,0.3946,0.3981,0.4052,0.4066,0.4086,0.4142,0.4175,0.4261,0.4293,0.4375,0.4408,0.4486,0.4499,0.4651,0.4607,0.4692,0.4726,0.4733,0.4691,0.4674,0.4703,0.4857,0.4596,0.4771,0.4769,0.4767,0,0.3824,0.3901,0.3923,0.3949,0.4036,0.4053,0.4086,0.4168,0.4192,0.4278,0.4305,0.443,0.4463,0.46,0.4709,0.4687,0.4873,0.4853,0.4969,0.4969,0.4883,0.4871,0.4795,0.5015,0.5015,0.5014,0.5014,0,0.3787,0.3798,0.3888,0.3902,0.3914,0.3994,0.4007,0.4068,0.4138,0.4171,0.4289,0.4338,0.4498,0.4627,0.4733,0.4908,0.4924,0.4995,0.5021,0.4943,0.4936,0.4677,0.4552,0.5018,0.5017,0.5017,0.5016,0,0.3697,0.3763,0.3783,0.3862,0.3881,0.3881,0.394,0.3957,0.404,0.4082,0.4106,0.4275,0.4454,0.4634,0.4831,0.4927,0.4939,0.5152,0.5028,0.5039,0.4871,0.476,0.4624,0.4499,0.5264,0.5266,0.5267,0,0.3655,0.3663,0.3725,0.3723,0.3749,0.377,0.3784,0.3883,0.3911,0.4044,0.4061,0.4255,0.4413,0.4723,0.4939,0.5174,0.4993,0.5218,0.5173,0.487,0.4765,0.4575,0.4464,0.5125,0.5125,0.5125,0.5125,0,0.3557,0.3576,0.3596,0.3607,0.3614,0.3628,0.3667,0.3687,0.3805,0.3882,0.4009,0.4143,0.4482,0.4689,0.5015,0.5171,0.4929,0.5227,0.4958,0.4693,0.4435,0.4324,0.4999,0.5126,0.5126,0.5126,0.5126,0.5126,0.3457,0.3445,0.3475,0.347,0.3482,0.3492,0.348,0.3555,0.3625,0.3728,0.3911,0.4085,0.4397,0.486,0.4965,0.5023,0.4962,0.4909,0.4814,0.4658,0.4485,0.5149,0.5282,0.5283,0.5283,0.5284,0.5284,0,0.3337,0.3347,0.3338,0.334,0.331,0.3364,0.3399,0.3392,0.3458,0.3624,0.3762,0.4051,0.4287,0.4528,0.472,0.4574,0.4466,0.4427,0.409,0.4017,0.4656,0.4593,0.4528,0.4528,0.4528,0.4528,0.4529,0.4529,0.3277,0.324,0.3251,0.3177,0.317,0.3125,0.3133,0.3164,0.327,0.34,0.3532,0.3689,0.3933,0.4089,0.4021,0.4025,0.3648,0.3601,0.3461,0.3829,0.3862,0.3894,0.38,0.357,0.3569,0.2743,0.2736,0.273]},{"header":{"parameterUnit":"m.s-1","parameterCategory":2,"la1":30.2991,"la2":30.254,"lo1":-89.0895,"lo2":-89.0444,"dy":0.0017,"dx":0.0017,"nx":28,"ny":28,"refTime":"2025-12-10T09:00:00:Z","depth":"0","parameterNumber":3,"parameterNumberName":"V-component_of_CURRENTS"},"data":[0,0,0,0,0,0,0,0,0,0,0,0,0,0,0,0,0,0,0,0,0,0,0,0,0,0,0,0,0,0,0,0,0,0,0,0,0,0,0,0,0,0,0,0,0,0,0,0,0,0,0,0,0,0,0,0,0,0,-0.063,-0.0631,0,-0.0757,-0.0759,-0.0761,-0.0836,-0.0836,-0.0836,-0.0836,-0.094,-0.0943,-0.0946,0,0,0,0,0,0,0,0,0,0,0,0,0,-0.0512,-0.0514,-0.063,-0.0631,-0.0633,-0.0757,-0.0759,-0.0761,-0.0836,-0.0836,-0.0836,-0.0836,-0.094,-0.0943,-0.0946,0,0,0,0,0,0,0,0,0,0,0,0,0,-0.0597,-0.0514,-0.063,-0.0682,-0.0688,-0.0757,-0.0759,-0.0762,-0.0836,-0.0836,-0.0836,-0.0836,-0.0938,-0.0942,-0.0947,-0.0974,0,0,-0.096,-0.0961,0,0,0,0,0,0,0,0,-0.0592,-0.0602,-0.0673,-0.0679,-0.0685,-0.0777,-0.0756,-0.083,-0.0836,-0.0784,-0.0836,-0.0836,-0.0881,-0.089,-0.092,-0.0979,-0.0983,-0.096,-0.0962,-0.0964,-0.0965,0,0,0,0,0,0,0,-0.0586,-0.0597,-0.0685,-0.0674,-0.0682,-0.0719,-0.0731,-0.0771,-0.0834,-0.0789,-0.0794,-0.0801,-0.0885,-0.0916,-0.0923,-0.0985,-0.096,-0.0964,-0.0966,-0.0968,-0.1061,-0.1061,0,0,0,0,0,0,-0.056,-0.0591,-0.0681,-0.0688,-0.0633,-0.0721,-0.0734,-0.0751,-0.0834,-0.0846,-0.0801,-0.0804,-0.0909,-0.0918,-0.0927,-0.0935,-0.0964,-0.0968,-0.0971,-0.1061,-0.1061,-0.1061,0,0,0,0,0,0,-0.0557,-0.0567,-0.0675,-0.0639,-0.0655,-0.0722,-0.0741,-0.0754,-0.0781,-0.0843,-0.0855,-0.0814,-0.0909,-0.0921,-0.0969,-0.094,-0.097,-0.0974,-0.1061,-0.1061,-0.1061,-0.0969,0,0,0,0,0,0,-0.0553,-0.0565,-0.0568,-0.0637,-0.0656,-0.0709,-0.0741,-0.0756,-0.0784,-0.079,-0.0858,-0.0869,-0.091,-0.0962,-0.0973,-0.0947,-0.0977,-0.1061,-0.1061,-0.1061,-0.0972,-0.0966,-0.096,0,0,0,0,0,-0.0549,-0.0553,-0.0568,-0.0578,-0.0658,-0.0708,-0.0722,-0.0772,-0.0784,-0.0797,-0.0849,-0.0866,-0.0968,-0.0966,-0.0979,-0.0953,-0.1061,-0.1061,-0.1061,-0.0975,-0.0967,-0.0961,0,0,0,0,0,0,-0.0509,-0.0563,-0.058,-0.0602,-0.0645,-0.0719,-0.0734,-0.0764,-0.0818,-0.0821,-0.0878,-0.0893,-0.0922,-0.0957,-0.0953,-0.0981,-0.1012,-0.1015,-0.0942,-0.0936,-0.093,-0.0874,-0.0981,0,0,0,0,0,-0.0497,-0.0512,-0.057,-0.0586,-0.0604,-0.0666,-0.0691,-0.0724,-0.0778,-0.0802,-0.0848,-0.0894,-0.0933,-0.095,-0.0995,-0.1015,-0.0995,-0.1004,-0.0998,-0.0993,-0.0957,-0.0911,-0.0896,-0.1061,-0.1061,-0.1061,0,0,-0.0486,-0.0516,-0.0526,-0.0577,-0.0616,-0.0635,-0.0682,-0.0716,-0.0723,-0.0803,-0.0828,-0.0881,-0.0937,-0.0961,-0.0975,-0.0985,-0.0939,-0.0993,-0.0987,-0.0954,-0.0909,-0.0892,-0.0878,-0.1061,-0.1061,-0.1061,0,0,-0.0469,-0.0497,-0.0503,-0.0531,-0.0576,-0.0611,-0.0613,-0.0679,-0.07,-0.0739,-0.0789,-0.0815,-0.0891,-0.0908,-0.0929,-0.0915,-0.0914,-0.0941,-0.0857,-0.0813,-0.0798,-0.0784,-0.0738,-0.072,-0.093,-0.093,-0.093,0,-0.0454,-0.0471,-0.0513,-0.0523,-0.0535,-0.0591,-0.0596,-0.0624,-0.0694,-0.0694,-0.0732,-0.08,-0.0851,-0.0846,-0.0849,-0.0894,-0.0875,-0.0877,-0.08,-0.0786,-0.0773,-0.0729,-0.0711,-0.0926,-0.0926,-0.0927,-0.0927,0,-0.0446,-0.0453,-0.0457,-0.0481,-0.0498,-0.0515,-0.0549,-0.0562,-0.0591,-0.0615,-0.0625,-0.0693,-0.0721,-0.0746,-0.0798,-0.0739,-0.0756,-0.0799,-0.0804,-0.075,-0.0709,-0.0691,-0.0919,-0.0921,-0.0922,-0.0923,0,0,-0.0435,-0.0448,-0.045,-0.0439,-0.0477,-0.0486,-0.0482,-0.0492,-0.046,-0.0517,-0.0475,-0.0546,-0.0568,-0.0592,-0.0647,-0.0612,-0.0521,-0.0662,-0.0662,-0.0591,-0.0414,-0.0443,-0.0427,-0.0552,-0.0549,-0.0546,-0.042,0,-0.042,-0.0413,-0.0426,-0.0405,-0.0403,-0.0425,-0.0404,-0.0409,-0.0419,-0.039,-0.0425,-0.0426,-0.0512,-0.052,-0.0495,-0.0525,-0.0472,-0.055,-0.0499,-0.0496,-0.0507,-0.0407,-0.0368,-0.0253,-0.0403,-0.04,-0.0398,0,-0.0413,-0.0405,-0.0384,-0.0346,-0.0344,-0.0331,-0.0289,-0.028,-0.025,-0.0254,-0.0247,-0.0279,-0.0256,-0.0331,-0.0295,-0.0345,-0.0356,-0.037,-0.0366,-0.0404,-0.0491,-0.0336,-0.0217,-0.0394,-0.0372,-0.0374,-0.0376,0,-0.0386,-0.037,-0.0343,-0.0339,-0.0312,-0.0286,-0.027,-0.0238,-0.0204,-0.0162,-0.0131,-0.0117,-0.0112,-0.0109,-0.0172,-0.022,-0.0114,-0.0188,-0.0208,-0.0211,-0.0169,-0.0174,-0.0188,-0.0112,-0.0113,-0.0113,-0.0113,0,-0.0367,-0.034,-0.0322,-0.0307,-0.0241,-0.0241,-0.0164,-0.0145,-0.0091,-0.0021,-0.0057,0.0004,-0.0056,-0.0032,-0.0081,-0.0083,-0.0041,-0.0145,-0.0162,-0.0142,-0.0145,-0.0296,-0.0432,-0.0108,-0.0109,-0.011,-0.0111,0,-0.0333,-0.0333,-0.0287,-0.0248,-0.0228,-0.0181,-0.0113,-0.005,-0.0022,0.0075,0.0089,0.0113,0.015,0.0099,0.0112,0.0029,-0.0052,0.0016,0.0041,0.0024,-0.0187,-0.032,-0.0316,-0.0387,0.0039,0.004,0.004,0,-0.0309,-0.0288,-0.0239,-0.0197,-0.0175,-0.0112,-0.0055,-0.002,0.0045,0.0148,0.0209,0.026,0.0336,0.0334,0.0225,0.0185,0.0002,0.0137,0.0049,-0.0147,-0.0308,-0.0396,-0.0464,0.0147,0.0148,0.0149,0.0149,0,-0.0249,-0.0237,-0.0198,-0.0125,-0.0065,0.0012,0.0086,0.0147,0.0212,0.0306,0.0446,0.0522,0.0506,0.0515,0.0399,0.031,-0.0001,0.0151,-0.0037,-0.0194,-0.0299,-0.0393,-0.0005,0.0158,0.0157,0.0156,0.0156,0.0155,-0.0192,-0.015,-0.0103,-0.0026,0.0044,0.0146,0.0235,0.0332,0.0467,0.0665,0.0675,0.0893,0.0798,0.067,0.0451,0.0097,0.0055,-0.0009,-0.0138,-0.0196,-0.0313,0.0085,0.0195,0.0194,0.0194,0.0193,0.0193,0,-0.0113,-0.007,0.0001,0.0097,0.0196,0.0211,0.0351,0.047,0.0668,0.09,0.1067,0.1272,0.1055,0.0771,0.0306,-0.0078,-0.0243,-0.0313,-0.0426,-0.0471,-0.0073,-0.0123,-0.0096,-0.0096,-0.0096,-0.0096,-0.0096,-0.0095,-0.0061,0.0015,0.0045,0.0219,0.0298,0.0459,0.0556,0.074,0.0946,0.134,0.1618,0.1798,0.1675,0.0558,-0.0203,-0.0408,-0.0716,-0.0778,-0.0945,-0.0706,-0.0688,-0.0671,-0.0748,-0.0853,-0.0854,-0.1254,-0.1259,-0.1263]}],[{"header":{"parameterUnit":"m.s-1","parameterCategory":2,"la1":30.2991,"la2":30.254,"lo1":-89.0895,"lo2":-89.0444,"dy":0.0017,"dx":0.0017,"nx":28,"ny":28,"refTime":"2025-12-10T09:00:00:Z","depth":"2","parameterNumber":2,"parameterNumberName":"U-component_of_CURRENTS"},"data":[0,0,0,0,0,0,0,0,0,0,0,0,0,0,0,0,0,0,0,0,0,0,0,0,0,0,0,0,0,0,0,0,0,0,0,0,0,0,0,0,0,0,0,0,0,0,0,0,0,0,0,0,0,0,0,0,0,0,0.2163,0.2164,0,0.2196,0.2196,0.2197,0.222,0.222,0.222,0.2221,0.2254,0.2255,0.2256,0,0,0,0,0,0,0,0,0,0,0,0,0,0.2142,0.2142,0.2163,0.2164,0.2164,0.2196,0.2197,0.2197,0.222,0.222,0.222,0.2221,0.2254,0.2255,0.2256,0,0,0,0,0,0,0,0,0,0,0,0,0,0.216,0.2142,0.2163,0.2181,0.2182,0.2196,0.2197,0.2197,0.222,0.222,0.222,0.2221,0.2254,0.2255,0.2256,0.2253,0,0,0.2259,0.2259,0,0,0,0,0,0,0,0,0.2159,0.216,0.2177,0.2179,0.2182,0.2205,0.2202,0.2216,0.222,0.2204,0.2221,0.2221,0.2238,0.2241,0.2244,0.2255,0.2256,0.2259,0.2259,0.226,0.226,0,0,0,0,0,0,0,0.2157,0.2159,0.2175,0.2178,0.2181,0.2194,0.2197,0.2204,0.2218,0.2206,0.2208,0.2213,0.224,0.2243,0.2245,0.2257,0.2259,0.226,0.226,0.226,0.2335,0.2336,0,0,0,0,0,0,0.2154,0.2158,0.2174,0.2176,0.2172,0.2194,0.2197,0.2196,0.2218,0.2222,0.2213,0.2214,0.2241,0.2244,0.2247,0.2309,0.226,0.2261,0.2261,0.2333,0.2335,0.2336,0,0,0,0,0,0,0.2153,0.2155,0.2173,0.2169,0.2173,0.2194,0.2193,0.2197,0.2215,0.2223,0.2227,0.2229,0.2242,0.2245,0.2272,0.2308,0.2261,0.2262,0.2332,0.2334,0.2336,0.2392,0,0,0,0,0,0,0.2152,0.2154,0.216,0.2169,0.2173,0.2193,0.2193,0.2197,0.2217,0.222,0.2238,0.2241,0.2242,0.2271,0.2273,0.2308,0.2263,0.233,0.2333,0.2335,0.2388,0.2396,0.2402,0,0,0,0,0,0.2151,0.2152,0.216,0.2163,0.2178,0.2193,0.2197,0.2213,0.2218,0.2229,0.2246,0.2241,0.229,0.2273,0.2275,0.2311,0.2329,0.2332,0.2335,0.2385,0.2394,0.2402,0,0,0,0,0,0,0.2148,0.2155,0.2164,0.2168,0.2187,0.2198,0.2211,0.222,0.2241,0.2248,0.2253,0.2257,0.2296,0.2293,0.2274,0.2341,0.2311,0.2314,0.2348,0.2357,0.2364,0.2387,0.2263,0,0,0,0,0,0.2149,0.2153,0.2167,0.2174,0.2184,0.22,0.2211,0.2224,0.224,0.225,0.2264,0.2284,0.2309,0.2323,0.2339,0.237,0.2414,0.2396,0.2403,0.2409,0.243,0.2514,0.2532,0.2347,0.2347,0.2347,0,0,0.2149,0.2156,0.2158,0.2175,0.2189,0.221,0.2208,0.223,0.2258,0.225,0.2293,0.2306,0.2321,0.2362,0.238,0.2366,0.2491,0.2413,0.2418,0.2436,0.252,0.2538,0.2554,0.2349,0.2348,0.2348,0,0,0.2147,0.2159,0.2161,0.2181,0.2208,0.2224,0.2234,0.2257,0.228,0.2318,0.2326,0.2365,0.2391,0.242,0.2435,0.2488,0.2522,0.249,0.2547,0.2629,0.2645,0.266,0.2767,0.279,0.2496,0.2496,0.2496,0,0.2151,0.2154,0.2168,0.2183,0.2203,0.2232,0.2251,0.2282,0.2315,0.2342,0.2341,0.2417,0.2425,0.2492,0.2516,0.2506,0.2567,0.2513,0.264,0.2655,0.267,0.2775,0.2801,0.2499,0.2499,0.2498,0.2498,0,0.2147,0.2164,0.2171,0.2202,0.2228,0.225,0.2293,0.2327,0.2361,0.2395,0.2469,0.2497,0.2545,0.2556,0.2555,0.2659,0.2676,0.2638,0.2621,0.2692,0.2798,0.2824,0.2503,0.2502,0.2501,0.2501,0,0,0.212,0.2159,0.2166,0.2185,0.2241,0.2258,0.2318,0.2375,0.2429,0.2479,0.256,0.261,0.2639,0.2659,0.2672,0.2747,0.2904,0.2745,0.2747,0.2856,0.3122,0.2927,0.2937,0.2891,0.2895,0.2898,0.3166,0,0.2117,0.2141,0.2169,0.2211,0.2229,0.2283,0.2342,0.2404,0.2471,0.256,0.2621,0.2704,0.2675,0.2723,0.2791,0.2868,0.297,0.2837,0.3033,0.304,0.2861,0.2958,0.2654,0.2847,0.3191,0.3195,0.3198,0,0.2102,0.2123,0.2155,0.222,0.2236,0.2277,0.2377,0.2433,0.2562,0.2622,0.2715,0.2778,0.2901,0.2871,0.3062,0.2981,0.3071,0.3133,0.3144,0.2959,0.289,0.2826,0.2881,0.3242,0.3238,0.3235,0.3232,0,0.2063,0.2115,0.2141,0.2161,0.2242,0.2279,0.2335,0.2451,0.2518,0.2684,0.2764,0.2898,0.2987,0.311,0.3224,0.317,0.3448,0.3378,0.3305,0.3294,0.307,0.3029,0.3552,0.3552,0.3552,0.3551,0.355,0,0.2037,0.206,0.2128,0.214,0.2195,0.2264,0.2352,0.2429,0.2571,0.2666,0.2798,0.2907,0.3054,0.321,0.3302,0.338,0.3514,0.3349,0.3349,0.3078,0.3037,0.3386,0.3364,0.3561,0.3559,0.3557,0.3555,0,0.1984,0.2027,0.2061,0.2143,0.2174,0.2216,0.2341,0.2404,0.2552,0.2689,0.2755,0.2953,0.3142,0.3296,0.3519,0.3451,0.3572,0.3582,0.3261,0.3212,0.3357,0.3334,0.3516,0.3511,0.3507,0.3504,0.3501,0,0.1953,0.1965,0.2047,0.2068,0.2106,0.2183,0.2236,0.2379,0.2451,0.2704,0.2761,0.3003,0.3104,0.334,0.3324,0.3443,0.3598,0.3214,0.3007,0.3371,0.3355,0.3338,0.3321,0.2783,0.2774,0.2767,0.2762,0,0.1892,0.1931,0.1955,0.2004,0.2052,0.2106,0.2193,0.2246,0.2425,0.2553,0.2723,0.2834,0.2998,0.2933,0.3038,0.3056,0.3141,0.3065,0.3595,0.2779,0.2684,0.2665,0.2673,0.27,0.2706,0.2711,0.2714,0.2717,0.1845,0.1849,0.1886,0.1928,0.1973,0.2004,0.2028,0.2121,0.2222,0.2314,0.2503,0.2545,0.2597,0.2531,0.2563,0.2584,0.2756,0.2651,0.2673,0.2702,0.2509,0.2404,0.2338,0.2342,0.2346,0.2349,0.2351,0,0.1772,0.1789,0.1808,0.1842,0.1843,0.1917,0.1976,0.1962,0.2026,0.2063,0.2124,0.1946,0.1921,0.209,0.1971,0.1955,0.1943,0.1947,0.1927,0.1986,0.2039,0.1813,0.1459,0.1457,0.1455,0.1453,0,0,0.1729,0.1714,0.1726,0.1703,0.1735,0.172,0.1737,0.1721,0.1722,0.1606,0.1566,0.1608,0.1843,0.1547,0.1564,0.1512,0.1728,0.1449,0.2146,0.2169,0.2219,0.2411,0.2122,0,0,0,0,0]},{"header":{"parameterUnit":"m.s-1","parameterCategory":2,"la1":30.2991,"la2":30.254,"lo1":-89.0895,"lo2":-89.0444,"dy":0.0017,"dx":0.0017,"nx":28,"ny":28,"refTime":"2025-12-10T09:00:00:Z","depth":"2","parameterNumber":3,"parameterNumberName":"V-component_of_CURRENTS"},"data":[0,0,0,0,0,0,0,0,0,0,0,0,0,0,0,0,0,0,0,0,0,0,0,0,0,0,0,0,0,0,0,0,0,0,0,0,0,0,0,0,0,0,0,0,0,0,0,0,0,0,0,0,0,0,0,0,0,0,0.0095,0.0093,0,-0.0067,-0.0069,-0.0071,-0.0195,-0.0196,-0.0197,-0.0197,-0.0408,-0.0413,-0.0417,0,0,0,0,0,0,0,0,0,0,0,0,0,0.0242,0.024,0.0095,0.0093,0.0091,-0.0067,-0.007,-0.0072,-0.0194,-0.0196,-0.0197,-0.0198,-0.0407,-0.0412,-0.0418,0,0,0,0,0,0,0,0,0,0,0,0,0,0.0137,0.0239,0.0095,0.0012,0.0003,-0.0067,-0.007,-0.0073,-0.0194,-0.0196,-0.0197,-0.0198,-0.0405,-0.0412,-0.0419,-0.0434,0,0,-0.044,-0.0443,0,0,0,0,0,0,0,0,0.0143,0.0131,0.0026,0.0018,0.0008,-0.0111,-0.0095,-0.0195,-0.0194,-0.0121,-0.0197,-0.0199,-0.0311,-0.0326,-0.0355,-0.0443,-0.0452,-0.0441,-0.0445,-0.0448,-0.045,0,0,0,0,0,0,0,0.0151,0.0137,0.0029,0.0025,0.0013,-0.0036,-0.0052,-0.0115,-0.0208,-0.0128,-0.0137,-0.0151,-0.0317,-0.0348,-0.0361,-0.0456,-0.0441,-0.0447,-0.0451,-0.0454,-0.0606,-0.0606,0,0,0,0,0,0,0.0179,0.0145,0.0034,0.0024,0.0076,-0.0037,-0.0055,-0.0073,-0.0207,-0.0228,-0.015,-0.0156,-0.0335,-0.0353,-0.0369,-0.0419,-0.0448,-0.0455,-0.0459,-0.0607,-0.0606,-0.0606,0,0,0,0,0,0,0.0183,0.0171,0.004,0.0082,0.0062,-0.0037,-0.0056,-0.0075,-0.0117,-0.0223,-0.0245,-0.0173,-0.0337,-0.0359,-0.0434,-0.0427,-0.0458,-0.0464,-0.0607,-0.0607,-0.0606,-0.0503,0,0,0,0,0,0,0.0188,0.0173,0.0168,0.0084,0.0061,0.0004,-0.0055,-0.0077,-0.0122,-0.0133,-0.025,-0.0271,-0.034,-0.0423,-0.0441,-0.0437,-0.047,-0.0607,-0.0607,-0.0606,-0.0507,-0.0499,-0.0493,0,0,0,0,0,0.0193,0.0195,0.0169,0.0155,0.0059,0.0005,-0.0012,-0.0089,-0.0121,-0.0133,-0.0218,-0.0268,-0.0433,-0.0428,-0.045,-0.0448,-0.0607,-0.0607,-0.0606,-0.051,-0.0501,-0.0493,0,0,0,0,0,0,0.0251,0.018,0.015,0.0128,0.0075,-0.0015,-0.0034,-0.0082,-0.0157,-0.0173,-0.0271,-0.0298,-0.0358,-0.0416,-0.0408,-0.049,-0.0526,-0.0529,-0.0445,-0.0437,-0.043,-0.0392,-0.0476,0,0,0,0,0,0.0267,0.025,0.0176,0.016,0.0137,0.0055,0.0022,-0.0028,-0.0103,-0.0139,-0.0219,-0.0303,-0.037,-0.0413,-0.0481,-0.0528,-0.0538,-0.054,-0.0533,-0.0526,-0.051,-0.0519,-0.051,-0.0605,-0.0605,-0.0605,0,0,0.0283,0.0245,0.0233,0.0172,0.0122,0.0097,0.003,-0.0013,-0.0038,-0.0148,-0.0208,-0.0282,-0.0376,-0.0431,-0.0463,-0.0482,-0.05,-0.0526,-0.052,-0.0506,-0.0517,-0.0508,-0.05,-0.0604,-0.0605,-0.0605,0,0,0.0316,0.0277,0.0275,0.0238,0.0177,0.0128,0.0122,0.0035,-0.0008,-0.0071,-0.0151,-0.0216,-0.0328,-0.0388,-0.0434,-0.0427,-0.0459,-0.0452,-0.0393,-0.0402,-0.0393,-0.0386,-0.0355,-0.0346,-0.0452,-0.0452,-0.0451,0,0.0339,0.0324,0.0267,0.0257,0.0237,0.0151,0.0148,0.0094,-0.0007,-0.0025,-0.0077,-0.0213,-0.0304,-0.0351,-0.0363,-0.041,-0.0405,-0.0415,-0.0389,-0.0382,-0.0377,-0.0348,-0.0339,-0.0447,-0.0447,-0.0448,-0.0448,0,0.0367,0.0355,0.0353,0.0315,0.0289,0.0272,0.0202,0.017,0.011,0.0057,-0.0002,-0.0121,-0.0199,-0.0238,-0.0312,-0.0317,-0.032,-0.0372,-0.04,-0.036,-0.0333,-0.0325,-0.0439,-0.0441,-0.0443,-0.0444,0,0,0.0413,0.0381,0.0377,0.0383,0.0321,0.0307,0.0282,0.0244,0.0246,0.0142,0.0145,0.0003,-0.0053,-0.0108,-0.0197,-0.022,-0.019,-0.0277,-0.028,-0.0228,-0.017,-0.0213,-0.021,-0.0234,-0.0233,-0.0232,-0.0154,0,0.045,0.0463,0.0431,0.0446,0.045,0.0391,0.0383,0.034,0.0291,0.0271,0.0167,0.0121,-0.0006,-0.0038,-0.0084,-0.0166,-0.0171,-0.0204,-0.0233,-0.0233,-0.0262,-0.0204,-0.0258,-0.0199,-0.0148,-0.0146,-0.0146,0,0.0483,0.0493,0.0516,0.0529,0.0527,0.0517,0.0516,0.05,0.0455,0.0422,0.0364,0.0284,0.0215,0.0109,0.0014,0.0001,-0.0072,-0.0129,-0.0128,-0.02,-0.0264,-0.024,-0.0188,-0.0134,-0.0135,-0.0136,-0.0136,0,0.0547,0.0556,0.0584,0.058,0.0572,0.0577,0.057,0.054,0.0559,0.0524,0.0543,0.0438,0.0396,0.0291,0.0136,0.0083,0.007,-0.0022,-0.0112,-0.0114,-0.0182,-0.0193,-0.0054,-0.0055,-0.0055,-0.0055,-0.0055,0,0.0601,0.0623,0.0613,0.0625,0.0676,0.0643,0.0695,0.0674,0.0683,0.0739,0.062,0.0659,0.0437,0.0385,0.0235,0.0102,0.0145,-0.0072,-0.0097,-0.0147,-0.0155,-0.0135,-0.0145,-0.0052,-0.0053,-0.0053,-0.0054,0,0.0658,0.0646,0.0687,0.0695,0.0701,0.0734,0.0779,0.083,0.0817,0.0895,0.0896,0.0834,0.076,0.0575,0.0424,0.0234,0.0113,0.0062,0.0036,0.0004,-0.0085,-0.0091,-0.0037,-0.0038,-0.0038,-0.0039,-0.004,0,0.0687,0.0709,0.0743,0.0778,0.0776,0.0825,0.0874,0.0886,0.0955,0.1024,0.1085,0.1037,0.1034,0.0807,0.0453,0.0212,0.0196,0.0009,-0.0139,-0.0052,-0.0082,-0.0088,-0.0093,-0.0167,-0.0168,-0.0169,-0.017,0,0.0749,0.0751,0.0787,0.0858,0.0908,0.0993,0.1059,0.1146,0.1193,0.1287,0.141,0.1426,0.1142,0.0835,0.0449,0.0268,0.0025,-0.0027,0.0097,-0.018,-0.0175,-0.0205,-0.0205,-0.0182,-0.018,-0.018,-0.0179,-0.0179,0.0789,0.0832,0.0873,0.0946,0.1016,0.1135,0.1232,0.1355,0.1513,0.1598,0.1606,0.1556,0.116,0.0594,0.0323,-0.0025,-0.0035,-0.0193,-0.0189,-0.0184,-0.0231,-0.0229,-0.0251,-0.025,-0.025,-0.0249,-0.0249,0,0.0837,0.088,0.096,0.105,0.1154,0.1163,0.1341,0.1483,0.1707,0.1677,0.1728,0.1325,0.0978,0.0609,0.0038,-0.0267,-0.0298,-0.0313,-0.0314,-0.0303,-0.0294,-0.0346,-0.0396,-0.0397,-0.0397,-0.0397,0,0,0.086,0.0938,0.0985,0.1145,0.1208,0.136,0.147,0.1703,0.1761,0.1768,0.161,0.137,0.0955,0.051,0.0122,-0.013,-0.0134,-0.017,-0.0041,0.001,0.0025,-0.0234,-0.0305,0,0,0,0,0]}],[{"header":{"parameterUnit":"m.s-1","parameterCategory":2,"la1":30.2991,"la2":30.254,"lo1":-89.0895,"lo2":-89.0444,"dy":0.0017,"dx":0.0017,"nx":28,"ny":28,"refTime":"2025-12-10T09:00:00:Z","depth":"4","parameterNumber":2,"parameterNumberName":"U-component_of_CURRENTS"},"data":[0,0,0,0,0,0,0,0,0,0,0,0,0,0,0,0,0,0,0,0,0,0,0,0,0,0,0,0,0,0,0,0,0,0,0,0,0,0,0,0,0,0,0,0,0,0,0,0,0,0,0,0,0,0,0,0,0,0,0.0661,0.0663,0,0.0775,0.0775,0.0776,0.0831,0.0832,0.0832,0.0833,0.0915,0.0917,0.0919,0,0,0,0,0,0,0,0,0,0,0,0,0,0.0559,0.056,0.0661,0.0663,0.0665,0.0774,0.0775,0.0776,0.0831,0.0832,0.0832,0.0833,0.0915,0.0917,0.0919,0,0,0,0,0,0,0,0,0,0,0,0,0,0.0626,0.056,0.0661,0.0709,0.0715,0.0774,0.0775,0.0777,0.0831,0.0832,0.0832,0.0833,0.0914,0.0917,0.0919,0.0921,0,0,0.0927,0.0928,0,0,0,0,0,0,0,0,0.0622,0.0629,0.07,0.0706,0.0713,0.0794,0.0771,0.0825,0.0831,0.0781,0.0833,0.0833,0.0875,0.0881,0.0893,0.0925,0.0929,0.0927,0.0929,0.093,0.0931,0,0,0,0,0,0,0,0.0617,0.0625,0.07,0.0702,0.071,0.0749,0.0758,0.0781,0.0818,0.0786,0.0791,0.0812,0.0878,0.0891,0.0896,0.093,0.0927,0.093,0.0931,0.0932,0.1038,0.1039,0,0,0,0,0,0,0.061,0.062,0.0697,0.0704,0.0674,0.0751,0.076,0.0763,0.0818,0.083,0.0812,0.0815,0.0886,0.0893,0.0899,0.0963,0.093,0.0933,0.0934,0.1037,0.1038,0.104,0,0,0,0,0,0,0.0607,0.0615,0.0692,0.067,0.0684,0.0752,0.0754,0.0765,0.0804,0.084,0.0849,0.0843,0.0887,0.0895,0.0938,0.0964,0.0934,0.0936,0.1035,0.1037,0.1039,0.1053,0,0,0,0,0,0,0.0603,0.0612,0.0627,0.0669,0.0685,0.074,0.0754,0.0767,0.0817,0.0822,0.0869,0.0876,0.0888,0.0934,0.094,0.0967,0.0938,0.1034,0.1036,0.1038,0.1051,0.1055,0.1059,0,0,0,0,0,0.0598,0.0614,0.0627,0.0638,0.0697,0.0742,0.0753,0.0801,0.0818,0.0837,0.0868,0.0876,0.0953,0.0937,0.0944,0.0972,0.1033,0.1036,0.1038,0.1049,0.1054,0.1059,0,0,0,0,0,0,0.0578,0.0623,0.0637,0.0666,0.0707,0.0754,0.0784,0.0812,0.0853,0.0865,0.0888,0.0897,0.0947,0.0957,0.0938,0.1011,0.0996,0.1,0.1002,0.1007,0.1011,0.1024,0.0941,0,0,0,0,0,0.0579,0.06,0.0647,0.067,0.0691,0.0739,0.077,0.0803,0.0841,0.0861,0.0894,0.0929,0.0961,0.0981,0.1011,0.1046,0.1058,0.1071,0.1074,0.1077,0.1095,0.1135,0.1143,0.1049,0.1049,0.1049,0,0,0.0579,0.0607,0.062,0.0668,0.0701,0.0738,0.0758,0.081,0.0846,0.0862,0.0919,0.0946,0.0974,0.1017,0.104,0.103,0.1108,0.1081,0.1083,0.1099,0.1138,0.1148,0.1156,0.1051,0.105,0.105,0,0,0.0582,0.0609,0.0628,0.0661,0.0722,0.0756,0.0774,0.0833,0.0865,0.0922,0.0941,0.0976,0.1037,0.105,0.1066,0.1107,0.1128,0.1131,0.116,0.1198,0.1206,0.1214,0.1222,0.123,0.113,0.113,0.113,0,0.0583,0.0608,0.0643,0.067,0.0707,0.0763,0.0797,0.0836,0.0904,0.0935,0.0947,0.1039,0.1049,0.1095,0.1113,0.1114,0.1144,0.1136,0.1203,0.121,0.1218,0.1225,0.1234,0.1131,0.1131,0.1131,0.1131,0,0.0592,0.0627,0.0641,0.0691,0.0733,0.0774,0.0832,0.0881,0.0933,0.0976,0.105,0.1072,0.1129,0.1134,0.114,0.12,0.1205,0.1202,0.1188,0.1228,0.1233,0.1241,0.1133,0.1132,0.1132,0.1132,0,0,0.0555,0.0634,0.0637,0.0672,0.0751,0.0784,0.0848,0.0922,0.0977,0.104,0.1105,0.1149,0.1183,0.1203,0.1213,0.1241,0.1294,0.1257,0.1259,0.126,0.1382,0.1279,0.1278,0.1322,0.1324,0.1326,0.1357,0,0.0555,0.0606,0.0648,0.071,0.075,0.0818,0.0875,0.095,0.1023,0.1097,0.1135,0.1205,0.1203,0.1243,0.1273,0.1302,0.1324,0.1286,0.135,0.1351,0.1249,0.1287,0.1333,0.1364,0.1366,0.1367,0.1368,0,0.0548,0.0589,0.0645,0.0739,0.076,0.0811,0.0921,0.0983,0.1091,0.115,0.123,0.1273,0.1332,0.1321,0.1394,0.1385,0.1395,0.14,0.1402,0.1312,0.1265,0.1322,0.1384,0.1383,0.1382,0.138,0.1379,0,0.0508,0.0587,0.0635,0.0663,0.0773,0.0821,0.0894,0.1008,0.1078,0.1199,0.1262,0.1342,0.1409,0.1437,0.1443,0.1451,0.1502,0.1502,0.1408,0.1399,0.1476,0.1468,0.1548,0.1548,0.1548,0.1548,0.1548,0,0.0492,0.0529,0.0627,0.0652,0.0727,0.0816,0.0911,0.0997,0.1127,0.1203,0.1297,0.1351,0.1457,0.1487,0.1472,0.1457,0.1524,0.1424,0.141,0.1477,0.1469,0.148,0.1472,0.1549,0.1549,0.1549,0.1548,0,0.0444,0.0503,0.0563,0.0672,0.0714,0.0773,0.0924,0.0997,0.1126,0.1229,0.1274,0.1412,0.1453,0.1482,0.1529,0.15,0.1472,0.1438,0.1488,0.1473,0.1342,0.1335,0.1375,0.1372,0.1369,0.1367,0.1365,0,0.0424,0.0453,0.0557,0.0603,0.0659,0.0762,0.084,0.0989,0.107,0.1225,0.1265,0.1366,0.1418,0.1396,0.1439,0.1407,0.1385,0.1389,0.1394,0.1348,0.133,0.1326,0.1322,0.1361,0.136,0.1359,0.1358,0,0.0384,0.0421,0.0466,0.0557,0.0639,0.0722,0.0844,0.0891,0.1048,0.1166,0.1232,0.1263,0.131,0.1341,0.1329,0.1292,0.1403,0.1361,0.1368,0.1373,0.1331,0.1315,0.1314,0.1349,0.135,0.1351,0.1352,0,0.0347,0.0362,0.0423,0.0504,0.0596,0.0662,0.0729,0.0828,0.092,0.11,0.1104,0.1173,0.1285,0.1278,0.1236,0.1222,0.123,0.1226,0.124,0.1251,0.1195,0.1122,0.1074,0,0,0,0,0,0.0313,0.0327,0.0378,0.0455,0.0543,0.0599,0.0727,0.0798,0.0931,0.0956,0.1039,0.105,0.1076,0.112,0.1081,0.1174,0.1215,0.1127,0.1213,0.1297,0.1308,0.1253,0,0,0,0,0,0,0.0287,0.0321,0.0343,0.0396,0.0446,0.0534,0.0605,0.0696,0.0728,0.0862,0.0873,0.0998,0.1019,0.1063,0.1057,0.107,0.1111,0.1186,0.1185,0.1291,0.1301,0.131,0.1257,0,0,0,0,0]},{"header":{"parameterUnit":"m.s-1","parameterCategory":2,"la1":30.2991,"la2":30.254,"lo1":-89.0895,"lo2":-89.0444,"dy":0.0017,"dx":0.0017,"nx":28,"ny":28,"refTime":"2025-12-10T09:00:00:Z","depth":"4","parameterNumber":3,"parameterNumberName":"V-component_of_CURRENTS"},"data":[0,0,0,0,0,0,0,0,0,0,0,0,0,0,0,0,0,0,0,0,0,0,0,0,0,0,0,0,0,0,0,0,0,0,0,0,0,0,0,0,0,0,0,0,0,0,0,0,0,0,0,0,0,0,0,0,0,0,0.034,0.0339,0,0.0294,0.0293,0.0292,0.0281,0.0282,0.0282,0.0283,0.0228,0.0226,0.0224,0,0,0,0,0,0,0,0,0,0,0,0,0,0.0355,0.0355,0.034,0.0339,0.0339,0.0294,0.0293,0.0292,0.0281,0.0282,0.0282,0.0283,0.0228,0.0226,0.0224,0,0,0,0,0,0,0,0,0,0,0,0,0,0.0331,0.0355,0.034,0.0329,0.0327,0.0294,0.0293,0.0292,0.0281,0.0282,0.0282,0.0283,0.0229,0.0226,0.0223,0.0193,0,0,0.0215,0.0214,0,0,0,0,0,0,0,0,0.0333,0.0331,0.0331,0.0329,0.0328,0.0295,0.0278,0.0259,0.0281,0.0297,0.0283,0.0283,0.025,0.0245,0.0233,0.0191,0.0188,0.0215,0.0213,0.0212,0.0211,0,0,0,0,0,0,0,0.0334,0.0332,0.032,0.033,0.0329,0.0305,0.0303,0.0274,0.0269,0.0296,0.0295,0.0292,0.0249,0.0236,0.0232,0.0188,0.0215,0.0212,0.021,0.0209,0.0136,0.0135,0,0,0,0,0,0,0.0345,0.0334,0.0322,0.0319,0.0333,0.0304,0.0302,0.0304,0.027,0.0266,0.0292,0.0292,0.0241,0.0235,0.023,0.0217,0.0212,0.0209,0.0208,0.0136,0.0135,0.0135,0,0,0,0,0,0,0.0346,0.0345,0.0323,0.0326,0.0322,0.0304,0.0306,0.0303,0.0299,0.0267,0.0262,0.0293,0.0241,0.0234,0.0217,0.0214,0.0208,0.0205,0.0136,0.0136,0.0135,0.0174,0,0,0,0,0,0,0.0347,0.0346,0.0352,0.0327,0.0322,0.0313,0.0305,0.0301,0.0296,0.0296,0.0266,0.0261,0.0241,0.0222,0.0215,0.021,0.0203,0.0136,0.0136,0.0135,0.0173,0.0175,0.0177,0,0,0,0,0,0.0347,0.0354,0.0353,0.0352,0.0332,0.0313,0.0308,0.0296,0.0296,0.0295,0.0279,0.0263,0.0213,0.0219,0.0211,0.0205,0.0137,0.0136,0.0135,0.0173,0.0175,0.0177,0,0,0,0,0,0,0.0364,0.0353,0.0351,0.0355,0.034,0.0312,0.0311,0.0301,0.0285,0.029,0.0261,0.0254,0.0237,0.0214,0.0222,0.0181,0.0171,0.0168,0.0202,0.0204,0.0205,0.0205,0.0201,0,0,0,0,0,0.0371,0.0375,0.0357,0.036,0.0356,0.0335,0.0327,0.0319,0.0301,0.0295,0.0273,0.0248,0.0224,0.0212,0.0186,0.0164,0.0124,0.0154,0.0155,0.0157,0.015,0.0084,0.008,0.0133,0.0133,0.0133,0,0,0.0379,0.0373,0.0376,0.0364,0.0353,0.0348,0.0332,0.0325,0.032,0.0291,0.0279,0.0254,0.022,0.0198,0.0188,0.0182,0.0122,0.0156,0.0158,0.015,0.0083,0.0078,0.0073,0.0133,0.0133,0.0133,0,0,0.0392,0.0391,0.0399,0.0388,0.0376,0.0362,0.0364,0.0341,0.0332,0.0317,0.0294,0.0268,0.0234,0.0204,0.0186,0.0178,0.0134,0.0172,0.0179,0.0116,0.0111,0.0106,0.0055,0.0045,0.0172,0.0173,0.0173,0,0.0402,0.0409,0.0396,0.0397,0.0393,0.0373,0.0376,0.036,0.0334,0.032,0.0323,0.0256,0.0233,0.0191,0.0194,0.0182,0.0142,0.0178,0.0118,0.0112,0.0106,0.0055,0.0044,0.0174,0.0174,0.0174,0.0174,0,0.0416,0.0424,0.0425,0.0423,0.0415,0.0415,0.0395,0.0383,0.0373,0.035,0.0312,0.0274,0.0233,0.0222,0.021,0.0156,0.0141,0.013,0.0115,0.0103,0.005,0.0038,0.0177,0.0176,0.0176,0.0175,0,0,0.0432,0.0437,0.0438,0.0442,0.0432,0.0424,0.0417,0.0396,0.0382,0.0352,0.032,0.028,0.0253,0.0229,0.0199,0.0148,0.0083,0.0128,0.0123,0.0081,-0.0053,-0.0031,-0.0042,0.0061,0.0058,0.0057,-0.0071,0,0.0448,0.0463,0.0457,0.0466,0.0472,0.0452,0.0443,0.042,0.0395,0.0357,0.0306,0.027,0.0257,0.0238,0.0183,0.0104,0.005,0.0119,-0.004,-0.0045,-0.002,-0.0056,0.005,-0.0081,-0.0084,-0.0086,-0.0087,0,0.0462,0.0471,0.0493,0.0489,0.0488,0.0493,0.0471,0.0459,0.0404,0.0381,0.033,0.0285,0.0209,0.0202,0.0055,0.0099,0.0028,-0.0033,-0.004,-0.0044,-0.0046,-0.0071,-0.0111,-0.0109,-0.0107,-0.0106,-0.0104,0,0.0478,0.0489,0.0511,0.0511,0.0507,0.0513,0.051,0.0473,0.0463,0.0397,0.037,0.0274,0.0229,0.0116,0.0006,0.0022,-0.0163,-0.0159,-0.021,-0.0209,-0.0207,-0.0201,-0.0271,-0.0271,-0.0271,-0.0271,-0.027,0,0.049,0.0502,0.0527,0.0536,0.0553,0.0543,0.0546,0.0523,0.0493,0.0468,0.0389,0.0337,0.0205,0.0091,-0.0014,-0.0151,-0.0182,-0.0223,-0.0248,-0.0186,-0.0176,-0.0216,-0.0208,-0.0275,-0.0274,-0.0273,-0.0273,0,0.0495,0.0514,0.0537,0.0555,0.0566,0.0579,0.0592,0.0588,0.0553,0.0515,0.0496,0.038,0.0227,0.0085,-0.0103,-0.0162,-0.0306,-0.0345,-0.027,-0.0286,-0.0305,-0.0293,-0.0422,-0.0422,-0.0423,-0.0423,-0.0423,0,0.0494,0.0514,0.0557,0.058,0.0596,0.062,0.0636,0.0626,0.0625,0.0532,0.0513,0.0369,0.0272,0.0017,-0.0125,-0.0333,-0.0345,-0.0406,-0.0354,-0.0313,-0.0324,-0.0312,-0.03,-0.0424,-0.0424,-0.0424,-0.0424,0,0.0484,0.0513,0.0532,0.0589,0.0626,0.0651,0.0678,0.0677,0.0646,0.0625,0.0515,0.0375,0.0203,0.0019,-0.0135,-0.0282,-0.0363,-0.041,-0.0409,-0.0361,-0.0317,-0.0325,-0.0313,-0.0425,-0.0425,-0.0425,-0.0425,0,0.0475,0.0491,0.0531,0.0578,0.0627,0.0654,0.0667,0.0659,0.0652,0.0576,0.0538,0.0341,0.0251,0.0043,-0.0114,-0.0244,-0.0265,-0.0278,-0.0285,-0.0285,-0.0195,-0.0115,-0.0198,0,0,0,0,0,0.0457,0.0476,0.0514,0.0562,0.0616,0.0651,0.0676,0.0685,0.0667,0.0607,0.0579,0.0415,0.018,0.0068,-0.006,-0.0126,-0.0295,-0.0278,-0.0315,-0.0432,-0.043,-0.0344,0,0,0,0,0,0,0.044,0.0474,0.0497,0.0539,0.0584,0.0634,0.0653,0.0647,0.0616,0.0585,0.0459,0.0419,0.0185,0.026,-0.0051,-0.0094,-0.0126,-0.0381,-0.0383,-0.0433,-0.0431,-0.043,-0.0341,0,0,0,0,0]}]]